This demonstration page uses our WeatherBlox Daily Observations layout. Learn more.

Left ArrowRight Arrow

Hourly Observations for June 25, 2018

Temp ( °F °C ) Dew Point ( °F °C ) Humidity (%) Winds ( mph kmh ) Pressure ( in mb ) Visibility ( mi km ) Precip ( " mm )
12:08 am 00:08 Cloudy with Nearby Thunderstorms 66 19 63 17 88 88 W 14 22 29.91 1013 4 6 0.00 0.00
12:30 am 00:30 Cloudy with Nearby Thunderstorms 64 18 63 17 94 94 SSW 8 13 29.91 1013 4 6 0.00 0.00
12:44 am 00:44 Cloudy with Light Rain 64 18 63 17 94 94 WSW 6 9 29.88 1012 4 6 0.00 0.00
12:53 am 00:53 Cloudy with Light Rain 64 17.8 63 17.2 96 96 NW 10 17 29.88 1012 6 10 0.20 5.08
1:53 am 01:53 Cloudy with Light Rain 64 17.8 63 17.2 96 96 N 10 17 29.84 1011 10 16 0.02 0.51
2:53 am 02:53 Mostly Cloudy 65 18.3 63 17.2 93 93 E 10 17 29.87 1011 10 16 0.01 0.25
3:53 am 03:53 Cloudy with Light Rain 64 17.8 63 17.2 96 96 E 10 17 29.84 1011 9 14 0.04 1.02
4:30 am 04:30 Cloudy with Light Rain 64 18 64 18 100 100 SW 7 11 29.85 1011 9 14 0.00 0.00
4:39 am 04:39 Cloudy with Light Rain 64 17.8 64 17.8 100 100 SSW 6 9 29.85 1011 5 8 0.02 0.51
4:53 am 04:53 Cloudy with Light Rain 65 18.3 64 17.8 97 97 S 3 6 29.86 1011 6 10 0.02 0.51
5:16 am 05:16 Cloudy with Light Rain 64 18 64 18 100 100 SSW 5 7 29.85 1011 8 13 0.00 0.00
5:53 am 05:53 Cloudy with Light Rain 64 17.8 63 17.2 96 96 SSW 6 9 29.86 1011 6 10 0.14 3.56
6:06 am 06:06 Cloudy with Light Rain 64 18 63 17 94 94 S 6 9 29.85 1011 9 14 0.00 0.00
6:53 am 06:53 Cloudy with Light Rain 64 17.8 63 17.2 96 96 SSW 5 7 29.87 1012 8 13 0.01 0.25
7:53 am 07:53 Cloudy with Light Rain 63 17.2 63 17.2 100 100 S 3 6 29.88 1012 6 10 0.01 0.25
8:14 am 08:14 Cloudy with Light Rain 63 17 63 17 100 100 S 5 7 29.91 1013 4 6 0.00 0.00
8:28 am 08:28 Cloudy with Rain 63 17.2 63 17.2 100 100 SE 3 6 29.91 1013 2 3 0.07 1.78
8:41 am 08:41 Cloudy with Rain 63 17.2 63 17.2 100 100 SSE 3 6 29.91 1013 1 2 0.16 4.06
8:53 am 08:53 Cloudy with Rain 63 17.2 63 17.2 100 100 S 5 7 29.89 1012 3 4 0.20 5.08
9:08 am 09:08 Cloudy with Light Rain 63 17 63 17 100 100 SE 6 9 29.91 1013 4 6 0.00 0.00
9:25 am 09:25 Cloudy with Light Rain 64 17.8 63 17.2 96 96 E 5 7 29.88 1012 5 8 0.04 1.02
9:35 am 09:35 Cloudy with Light Rain 64 18 63 17 94 94 E 3 6 29.85 1011 6 10 0.00 0.00
9:53 am 09:53 Cloudy with Light Rain 64 17.8 63 17.2 96 96 ESE 3 6 29.88 1012 7 11 0.04 1.02
10:37 am 10:37 Cloudy 66 18.9 63 17.2 90 90 NNW 5 7 29.85 1011 10 16 0.00 0.03
10:53 am 10:53 Cloudy 67 19.4 64 17.8 91 91 NW 7 11 29.87 1011 10 16 0.00 0.03
11:53 am 11:53 Cloudy 69 20.6 64 17.8 84 84 N 7 11 29.85 1011 10 16 0.00 0.03
12:53 pm 12:53 Cloudy 71 21.7 63 17.2 76 76 NW 6 9 29.84 1011 10 16 0.00 0.00
1:38 pm 13:38 Cloudy 72 22 64 18 78 78 WNW 7 11 29.80 1009 10 16 0.00 0.00
1:53 pm 13:53 Mostly Cloudy 71 21.7 63 17.2 76 76 NW 6 9 29.84 1010 10 16 0.00 0.00
2:53 pm 14:53 Cloudy with Light Rain 69 20.6 63 17.2 81 81 NW 6 9 29.84 1010 3 4 0.04 1.02
3:00 pm 15:00 Cloudy with Light Rain 70 21 64 18 83 83 Calm 29.83 1010 10 16 0.00 0.00
3:53 pm 15:53 Cloudy with Light Rain 72 22.2 62 16.7 71 71 W 8 13 29.83 1010 10 16 0.00 0.03
4:53 pm 16:53 Sunny 72 22.2 59 15 64 64 W 8 13 29.82 1010 10 16 0.00 0.03
5:46 pm 17:46 Mostly Cloudy with Nearby Thunderstorms 70 21 61 16 73 73 SW 14 22 29.77 1008 10 16 0.00 0.00
5:53 pm 17:53 Mostly Cloudy with Nearby Thunderstorms 68 20 61 16.1 78 78 WSW 12 19 29.83 1010 10 16 0.00 0.00
6:01 pm 18:01 Mostly Cloudy 67 19.4 62 16.7 84 84 WSW 8 13 29.83 1010 10 16 0.00 0.00
6:26 pm 18:26 Cloudy 68 20 59 15 73 73 W 12 19 29.83 1010 10 16 0.00 0.00
6:53 pm 18:53 Cloudy with Light Rain 66 18.9 61 16.1 84 84 WSW 8 13 29.83 1010 10 16 0.00 0.03
7:53 pm 19:53 Sunny 69 20.6 63 17.2 81 81 SW 6 9 29.82 1010 10 16 0.00 0.03
8:53 pm 20:53 Sunny 67 19.4 62 16.7 84 84 WSW 6 9 29.83 1010 10 16 0.00 0.00
9:53 pm 21:53 Clear 64 17.8 61 16.1 90 90 WSW 7 11 29.85 1011 10 16 0.00 0.00
10:53 pm 22:53 Mostly Clear 64 17.8 61 16.1 90 90 W 7 11 29.85 1011 10 16 0.00 0.00
11:53 pm 23:53 Clear 62 16.7 61 16.1 96 96 SW 3 6 29.85 1011 10 16 0.00 0.00

Powered by AerisWeather